NOAA 16 DEB, 41665

Orbit data source: Space-Track

NOAA 16 DEB, 41665 is space debris in SSO originally from a launch on Thu, 21 Sep 2000 UTC launched from the Air Force Western Test Range (AFWTR). Debris objects in space refer to the collection of defunct objects orbiting the Earth. Examples of debris include non-operational satellites, rocket bodies, and fragments generated from explosions, collisions, or faulty payload assembly.

Loading next visibility...
Identifier
41665, 2000-055PE
Orbit
SSO
Country
Flag of USUS
Related business
Manufacturer
Unknown
Mission
Spacecraft
Bus & Motor
Unknown
Mass
Unknown
Launch date (UTC)
2000-09-21 (25 years ago)
Launch vehicle
Unknown
Launch site
Air Force Western Test Range (AFWTR)
Object type
Payload
Rocket body
Debris
Shape & HBR
Unknown shape, 0.1 m
Radar Cross Section
Small (<0.1 m²)

Expand to show TLE details & history
Last TLE update: 2 days ago

TLE from 2 days ago
0 NOAA 16 DEB
1 41665U 00055PE  25295.19826072  .00001500  00000-0  88235-3 0  9995
2 41665  98.6409 288.3656 0040767 150.2993 210.0504 14.09074836487666
Epoch: 2025-10-22T04:45Z
TLE epoch observation values (Epoch: 2025-10-22T04:45:29.726Z)
Latitude
-0.00004°
Longitude
-173.88356°
Altitude
891.027 km
Speed
7.394 km/s
True Right ascension
19h 13m 27s
True Declination
0° 00' 00"
Sunlit
Object was in daylight at epoch
Visualization orbit readout
Latitude
Unknown
Longitude
Unknown
Altitude
Unknown
Speed
Unknown
Apparent Right ascension
Unknown
Apparent Declination
Unknown
Sunlit
N/A
Visualization observer readout
Local Sidereal Time
01:26:00
Azimuth
Unknown
Elevation
Unknown
Doppler factor
Unknown
Orbital elements
Apogee altitude
889.216 km
Perigee altitude
830.203 km
Semi-major axis
7,237.846 km
Eccentricity
0.00408
Inclination
98.6409°
RAAN
288.3656°
Arg. of periapsis
150.2993°
True anomaly
209.81749°
Mean anomaly
210.0504°
Eccentric anomaly
209.93384°
Mean motion
3.52476 °/min
Orbital period
102.13 mins
BSTAR
0.00088235
Loading maneuver chart data...
Computing Atmospheric mass density...
Loading historical data...
Loading historical data...
Loading historical data...
Loading historical data...
Loading historical data...
Loading historical data...
Loading historical data...

Documentation

Showing up to 5 results
|